Date String (YYYY-MM-DD hh:mm:ss) UTC,Instrument flags,absolute air pressure of the measurement (hPa),sample flow rate (lpm),inlet stack bypass flow (lpm),air temperature of the measurement (°C),ambient temperature measured by the external sensor (°C),aerosol sample conditioner tube jacket temperature (°C),OPC LED temperature (°C),internal box temperature (°C),relative humidity of the measurement (%),span deviation,mass concentration of particles derived from Lorenz-Mie calculation of OPC scattering (μg/m³),mass concentration of particles derived from Lorenz-Mie calculation of OPC scattering (μg/m³),mass concentration of particles derived from Lorenz-Mie calculation of OPC scattering (μg/m³)
DateTimeUTC,F1_M11,P_M11,Q1_M11,Q2_M11,T1_M11,T2_M11,T3_M11,T4_M11,T5_M11,U1_M11,ZSPAN_M11,X0_M11,X2_M11,X1_M11
2023-10-18 02:00:00,SystemResetWarning,0827.0,5.00,000.00,028.2,027.2,000.0,036.6,030.1,11.7,0000.0,0002.98,0001.90,0001.56
2023-10-18 02:01:00,SystemResetWarning,0827.1,5.00,000.00,028.3,027.3,000.0,036.6,030.1,11.8,0000.0,0002.98,0001.92,0001.57
2023-10-18 02:02:00,SystemResetWarning,0827.1,4.99,000.00,028.3,026.7,000.0,036.6,030.1,11.6,0000.0,0002.94,0001.90,0001.57
2023-10-18 02:03:00,SystemResetWarning,0827.0,5.01,000.00,028.3,025.0,000.0,036.6,030.0,11.5,0000.0,0003.07,0001.96,0001.59
2023-10-18 02:04:00,SystemResetWarning,0827.1,5.02,000.00,028.2,024.6,000.0,036.5,029.8,11.8,0000.0,0003.23,0002.03,0001.60
2023-10-18 02:05:00,SystemResetWarning,0827.0,5.00,000.00,028.1,024.8,000.0,036.5,029.7,11.9,0000.0,0003.19,0002.03,0001.61
2023-10-18 02:06:00,SystemResetWarning,0827.0,5.00,000.00,028.1,025.2,000.0,036.6,029.7,12.0,0000.0,0003.24,0002.06,0001.61
2023-10-18 02:07:00,SystemResetWarning,0827.0,5.00,000.00,028.1,025.5,000.0,036.6,029.7,12.0,0000.0,0003.31,0002.09,0001.63
2023-10-18 02:08:00,SystemResetWarning,0827.0,5.01,000.00,028.1,025.9,000.0,036.6,029.8,12.0,0000.0,0003.15,0002.09,0001.65
2023-10-18 02:09:00,SystemResetWarning,0827.0,5.00,000.00,028.1,026.1,000.0,036.6,029.8,11.9,0000.0,0003.25,0002.10,0001.67
2023-10-18 02:10:00,SystemResetWarning,0827.0,5.00,000.00,028.1,026.4,000.0,036.6,029.9,11.9,0000.0,0003.22,0002.09,0001.69
2023-10-18 02:11:00,SystemResetWarning,0827.0,5.00,000.00,028.1,026.6,000.0,036.6,029.9,11.9,0000.0,0003.28,0002.11,0001.70
2023-10-18 02:12:00,SystemResetWarning,0827.0,5.00,000.00,028.2,026.8,000.0,036.6,030.0,11.9,0000.0,0003.18,0002.09,0001.70
2023-10-18 02:13:00,SystemResetWarning,0827.0,4.99,000.00,028.2,026.9,000.0,036.6,030.0,12.0,0000.0,0003.35,0002.09,0001.72
2023-10-18 02:14:00,SystemResetWarning,0827.0,5.00,000.00,028.2,027.0,000.0,036.6,030.1,11.9,0000.0,0003.62,0002.09,0001.72
2023-10-18 02:15:00,SystemResetWarning,0827.0,5.00,000.00,028.3,027.1,000.0,036.7,030.1,11.8,0000.0,0003.58,0002.07,0001.71
2023-10-18 02:16:00,SystemResetWarning,0827.0,5.00,000.00,028.3,027.2,000.0,036.7,030.2,11.6,0000.0,0003.60,0002.10,0001.72
2023-10-18 02:17:00,SystemResetWarning,0827.0,5.00,000.00,028.4,027.2,000.0,036.7,030.2,11.7,0000.0,0003.63,0002.15,0001.73
2023-10-18 02:18:00,SystemResetWarning,0827.0,4.99,000.00,028.4,025.8,000.0,036.7,030.1,11.7,0000.0,0003.61,0002.14,0001.72
2023-10-18 02:19:00,SystemResetWarning,0827.0,5.01,000.00,028.3,024.7,000.0,036.6,030.0,11.6,0000.0,0003.64,0002.14,0001.72
2023-10-18 02:20:00,SystemResetWarning,0827.1,5.02,000.00,028.2,024.7,000.0,036.6,029.8,11.6,0000.0,0003.65,0002.16,0001.72
2023-10-18 02:21:00,SystemResetWarning,0827.1,5.00,000.00,028.1,024.9,000.0,036.6,029.7,11.7,0000.0,0003.74,0002.20,0001.72
2023-10-18 02:22:00,SystemResetWarning,0827.1,5.00,000.00,028.1,025.3,000.0,036.6,029.7,11.7,0000.0,0003.67,0002.19,0001.72
2023-10-18 02:23:00,SystemResetWarning,0827.1,5.00,000.00,028.1,025.7,000.0,036.6,029.8,11.7,0000.0,0003.72,0002.19,0001.71
2023-10-18 02:24:00,SystemResetWarning,0827.1,4.99,000.00,028.1,026.0,000.0,036.6,029.8,11.5,0000.0,0003.75,0002.21,0001.71
2023-10-18 02:25:00,SystemResetWarning,0827.1,5.00,000.00,028.1,026.2,000.0,036.6,029.9,11.7,0000.0,0003.76,0002.21,0001.71
2023-10-18 02:26:00,SystemResetWarning,0827.1,5.00,000.00,028.1,026.4,000.0,036.6,029.9,11.8,0000.0,0003.72,0002.20,0001.70
2023-10-18 02:27:00,SystemResetWarning,0827.1,5.01,000.00,028.2,026.6,000.0,036.6,030.0,11.7,0000.0,0003.66,0002.16,0001.69
2023-10-18 02:28:00,SystemResetWarning,0827.1,5.00,000.00,028.2,026.8,000.0,036.7,030.0,11.7,0000.0,0003.55,0002.09,0001.67
2023-10-18 02:29:00,SystemResetWarning,0827.1,5.00,000.00,028.2,026.9,000.0,036.7,030.0,11.6,0000.0,0004.07,0002.05,0001.66
2023-10-18 02:30:00,SystemResetWarning,0827.1,5.00,000.00,028.3,027.0,000.0,036.7,030.1,11.6,0000.0,0004.10,0002.06,0001.65
2023-10-18 02:31:00,SystemResetWarning,0827.0,5.00,000.00,028.3,027.1,000.0,036.7,030.1,11.6,0000.0,0004.29,0002.12,0001.64
2023-10-18 02:32:00,SystemResetWarning,0827.1,4.99,000.00,028.3,027.2,000.0,036.7,030.2,11.5,0000.0,0004.72,0002.10,0001.62
2023-10-18 02:33:00,SystemResetWarning,0827.1,4.99,000.00,028.4,026.6,000.0,036.7,030.2,11.5,0000.0,0004.81,0002.06,0001.60
2023-10-18 02:34:00,SystemResetWarning,0827.1,5.01,000.00,028.3,024.9,000.0,036.7,030.0,11.5,0000.0,0004.81,0002.05,0001.59
2023-10-18 02:35:00,SystemResetWarning,0827.1,5.01,000.00,028.2,024.6,000.0,036.6,029.9,11.5,0000.0,0004.75,0002.02,0001.56
2023-10-18 02:36:00,SystemResetWarning,0827.1,5.01,000.00,028.2,024.8,000.0,036.6,029.7,11.5,0000.0,0004.35,0001.96,0001.54
2023-10-18 02:37:00,SystemResetWarning,0827.0,5.00,000.00,028.1,025.1,000.0,036.6,029.7,11.4,0000.0,0004.20,0001.91,0001.53
2023-10-18 02:38:00,SystemResetWarning,0827.0,5.00,000.00,028.1,025.5,000.0,036.6,029.7,11.3,0000.0,0004.53,0001.93,0001.51
2023-10-18 02:39:00,SystemResetWarning,0827.0,5.01,000.00,028.1,025.8,000.0,036.6,029.8,11.3,0000.0,0004.71,0001.91,0001.49
2023-10-18 02:40:00,SystemResetWarning,0826.9,4.99,000.00,028.1,026.1,000.0,036.6,029.8,11.3,0000.0,0004.17,0001.93,0001.47
2023-10-18 02:41:00,SystemResetWarning,0827.0,4.99,000.00,028.1,026.3,000.0,036.6,029.9,11.2,0000.0,0005.63,0001.94,0001.47
2023-10-18 02:42:00,SystemResetWarning,0827.0,5.00,000.00,028.1,026.5,000.0,036.6,029.9,11.2,0000.0,0005.65,0001.85,0001.45
2023-10-18 02:43:00,SystemResetWarning,0827.1,5.00,000.00,028.2,026.7,000.0,036.6,029.9,11.2,0000.0,0005.42,0001.89,0001.44
2023-10-18 02:44:00,SystemResetWarning,0827.1,5.00,000.00,028.2,026.8,000.0,036.6,030.0,11.2,0000.0,0005.36,0001.92,0001.44
2023-10-18 02:45:00,SystemResetWarning,0827.0,5.00,000.00,028.2,026.9,000.0,036.7,030.0,11.2,0000.0,0005.40,0001.96,0001.44
2023-10-18 02:46:00,SystemResetWarning,0827.0,5.01,000.00,028.2,027.0,000.0,036.7,030.1,11.2,0000.0,0005.60,0001.98,0001.44
2023-10-18 02:47:00,SystemResetWarning,0827.0,5.00,000.00,028.3,027.1,000.0,036.7,030.1,11.2,0000.0,0006.49,0001.97,0001.43
2023-10-18 02:48:00,SystemResetWarning,0827.0,5.00,000.00,028.3,027.2,000.0,036.7,030.1,11.1,0000.0,0006.61,0001.98,0001.42
2023-10-18 02:49:00,SystemResetWarning,0827.2,4.99,000.00,028.4,027.3,000.0,036.7,030.2,11.1,0000.0,0006.42,0001.96,0001.42
2023-10-18 02:50:00,SystemResetWarning,0827.1,4.99,000.00,028.4,026.7,000.0,036.7,030.2,11.1,0000.0,0006.23,0001.99,0001.43
2023-10-18 02:51:00,SystemResetWarning,0827.1,5.00,000.00,028.3,025.2,000.0,036.7,030.0,11.2,0000.0,0006.18,0001.98,0001.44
2023-10-18 02:52:00,SystemResetWarning,0827.1,5.01,000.00,028.3,024.7,000.0,036.6,029.8,11.2,0000.0,0004.93,0001.94,0001.43
2023-10-18 02:53:00,SystemResetWarning,0827.1,5.01,000.00,028.2,024.9,000.0,036.6,029.7,11.3,0000.0,0004.39,0001.93,0001.43
2023-10-18 02:54:00,SystemResetWarning,0827.1,5.00,000.00,028.1,025.2,000.0,036.6,029.7,11.3,0000.0,0004.30,0001.88,0001.43
2023-10-18 02:55:00,SystemResetWarning,0827.1,5.01,000.00,028.1,025.5,000.0,036.6,029.7,11.3,0000.0,0004.19,0001.85,0001.43
2023-10-18 02:56:00,SystemResetWarning,0827.1,5.00,000.00,028.1,025.8,000.0,036.6,029.8,11.3,0000.0,0004.06,0001.79,0001.42
2023-10-18 02:57:00,SystemResetWarning,0827.1,4.99,000.00,028.1,026.1,000.0,036.6,029.8,11.3,0000.0,0003.90,0001.73,0001.41
2023-10-18 02:58:00,SystemResetWarning,0827.1,5.00,000.00,028.1,026.4,000.0,036.6,029.9,11.4,0000.0,0002.84,0001.74,0001.41
2023-10-18 02:59:00,SystemResetWarning,0827.1,5.00,000.00,028.2,026.6,000.0,036.6,029.9,11.4,0000.0,0002.70,0001.72,0001.41
